[Iaude] MPEC J313: 2024 JP17 [a=0.68,e=0.52,i=9.9,H=26.7]
    mpec at cfa.harvard.edu 
    mpec at cfa.harvard.edu
       
    Wed May 15 18:27:54 EDT 2024
    
    
  
M.P.E.C. 2024-J313                                 Issued 2024 May 15, 22:26 UT
     The Minor Planet Electronic Circulars contain information on unusual
         minor planets, routine data on comets and natural satellites,
         and occasional editorial announcements.  They are published
    on behalf of Division F of the International Astronomical Union by the
          Minor Planet Center, Smithsonian Astrophysical Observatory,
                          Cambridge, MA 02138, U.S.A.
			  
             Prepared using the Tamkin Foundation Computer Network
                              MPC at CFA.HARVARD.EDU
            URL https://www.minorplanetcenter.net/    ISSN 1523-6714
                                   2024 JP17                                    
Observations:
     K24J17P* C2024 05 14.90856115 18 53.07 +22 02 28.7          18.6 R EJ313K88
     K24J17P  C2024 05 14.91048015 18 41.22 +22 02 45.4          18.7 R EJ313K88
     K24J17P KC2024 05 14.92297715 17 24.57 +22 04 34.2          18.7 R EJ313K88
     K24J17P KC2024 05 14.92455515 17 14.92 +22 04 47.9          18.7 R EJ313K88
     K24J17P 1C2024 05 14.95749 15 13 55.50 +22 08 52.8          19.8 VXEJ313033
     K24J17P 1C2024 05 14.95784 15 13 53.33 +22 08 55.6          19.6 VXEJ313033
     K24J17P 1C2024 05 14.95818 15 13 51.24 +22 08 58.4          19.7 VXEJ313033
     K24J17P KC2024 05 14.96355215 13 13.65 +22 10 08.8          18.5 RoEJ313K88
     K24J17P KB2024 05 14.96522 15 13 05.46 +22 10 18.6          18.4 GXEJ313A71
     K24J17P KC2024 05 14.96538215 13 02.27 +22 10 22.5          18.5 RoEJ313K88
     K24J17P KB2024 05 14.96655 15 12 57.24 +22 10 28.6          18.2 GXEJ313A71
     K24J17P KC2024 05 14.96726215 12 50.61 +22 10 36.7          18.8 RoEJ313K88
     K24J17P KB2024 05 14.96788 15 12 49.01 +22 10 39.8          18.6 GXEJ313A71
     K24J17P KC2024 05 15.02550915 06 46.80 +22 17 36.9          19.1 RoEJ313K88
     K24J17P KC2024 05 15.02812515 06 30.35 +22 17 53.7          19.0 RoEJ313K88
     K24J17P KC2024 05 15.03074215 06 13.96 +22 18 11.2          19.0 RoEJ313K88
     K24J17P KC2024 05 15.03342015 05 57.19 +22 18 28.2          18.8 RoEJ313K88
     K24J17P KB2024 05 15.04208315 05 38.609+22 31 07.64         19.6 VZEJ313Y05
     K24J17P KB2024 05 15.04500815 05 19.939+22 31 29.60         19.3 VZEJ313Y05
     K24J17P KB2024 05 15.04790415 05 01.416+22 31 51.64         18.6 VZEJ313Y05
     K24J17P KB2024 05 15.26282 14 42 15.792+22 41 44.99         19.1 GVEJ313734
     K24J17P KB2024 05 15.26610 14 41 54.242+22 41 56.58         18.8 GVEJ313734
     K24J17P KB2024 05 15.26933 14 41 32.918+22 42 07.99         19.0 GVEJ313734
     K24J17P KC2024 05 15.83987 13 40 30.18 +22 32 43.6          19.7 VZEJ313M38
     K24J17P KC2024 05 15.84240113 40 14.66 +22 32 29.5          19.0 RoEJ313K88
     K24J17P KC2024 05 15.84503113 39 57.36 +22 32 16.0          19.3 RoEJ313K88
     K24J17P KC2024 05 15.84730 13 39 41.46 +22 32 03.7          19.0 VZEJ313M38
     K24J17P KC2024 05 15.84949613 39 28.07 +22 31 51.8                oEJ313K88
     K24J17P KC2024 05 15.85277913 39 06.58 +22 31 34.1          19.2 RoEJ313K88
     K24J17P KB2024 05 15.91999 13 31 44.48 +22 24 45.2          18.9 GXEJ313M45
     K24J17P KB2024 05 15.92370 13 31 20.45 +22 24 18.7          19.4 GXEJ313M45
Observer details:
033 Karl Schwarzschild Observatory, Tautenburg.  Observers C. Heogner, F.
    Ludwig, M. Hartmann, B. Stecklum.  Measurer B. Stecklum.  1.34-m f/3
    Schmidt + CCD.
734 Farpoint Observatory, Eskridge.  Observers D. Cromer, G. Hug, D. Goodin,
    R. Valentine, P. Lessig.  Measurer G. Hug.  0.69-m f/3.54 reflector + CMO.
A71 Stixendorf.  Observers M. Jaeger, E. Prosperi.  Measurer M. Jaeger.
    0.34-m f/4.2 reflector + CMO.
K88 GINOP-KHK, Piszkesteto.  Observer K. Sarneczky.  0.60-m Schmidt + CCD.
M38 Harsona Observatory, Nyiregyhaza.  Observer T. Elek.  0.20-m f/3 reflector
    + CCD.
M45 Starhopper Observatory, Sfantu Gheorghe.  Observer F. Ursache.  0.41-m
    f/7.5 reflector + CMO.
Y05 SONEAR Wykrota-CEAMIG, Serra da Piedade.  Observers C. Jacques, A.
    Caetano, E. Pimentel.  Measurer C. Jacques.  0.45-m f/2.9 reflector + CMO.
Orbital elements:
2024 JP17                                                Earth MOID = 0.0009 AU
Epoch 2024 Mar. 31.0 TT = JDT 2460400.5                 MPC                     
M 121.24361              (2000.0)            P               Q                  
n   1.76232550     Peri.  349.44764     +0.68669358     -0.71240705             
a   0.6788054      Node    57.00170     +0.67889617     +0.55732594             
e   0.5195337      Incl.    9.93266     +0.25990752     +0.42645516             
P   0.56           H   26.78          G   0.15           U   7                  
Residuals in seconds of arc
240514 K88  0.3+  0.2+    240514 K88  0.4+  0.4-    240515 734  0.0   0.1-
240514 K88  0.9-  0.1-    240514 A71  0.3-  0.8+    240515 M38  0.8-  0.1+
240514 K88  0.5+  0.2-    240515 K88  0.4+  0.4+    240515 K88  0.5+  0.4-
240514 K88  1.4+  0.1-    240515 K88  0.3-  0.1-    240515 K88  0.1+  0.1+
240514 033  0.1-  0.0     240515 K88  0.1+  0.2+    240515 M38  0.2+  0.0
240514 033  0.1-  0.0     240515 K88  0.4+  0.2-    240515 K88  0.3+  0.0
240514 033  0.1+  0.1+    240515 Y05  0.7+  0.2-    240515 K88  1.0+  0.3+
240514 K88  0.2+  0.7+    240515 Y05  0.9+  0.6-    240515 M45  0.8-  0.3+
240514 A71  1.5-  0.5+    240515 Y05  0.8+  0.4-    240515 M45  0.8-  0.3+
240514 K88  0.1+  0.1+    240515 734  0.6-  0.0
240514 A71  0.8-  0.0     240515 734  0.2+  0.2-
Ephemeris:
2024 JP17                a,e,i = 0.68, 0.52, 10                  q = 0.3261
Date    TT    R. A. (2000) Decl.     Delta      r    Elong.  Phase     V
2024 04 15    19 48 02.4 +01 23 56   0.1779  1.0071    86.1    83.7    26.0
...
2024 04 30    19 37 03.3 +03 21 40   0.09412 1.0307   101.8    73.1    24.3
...
2024 05 08    19 07 33.1 +06 49 49   0.04757 1.0299   114.4    63.1    22.5
...
2024 05 14    16 36 02.8 +19 04 08   0.01675 1.0232   138.4    41.0    19.6
2024 05 15    15 09 44.2 +22 19 15   0.01427 1.0216   138.6    40.9    19.2
2024 05 16    13 23 44.2 +22 19 45   0.01410 1.0198   128.1    51.3    19.5
...
2024 05 22    09 23 51.9 +06 53 16   0.04095 1.0061    80.2    97.5    23.4
...
2024 05 30    08 42 44.5 +02 54 27   0.08697 0.9794    64.5   110.9    25.7
...
2024 06 14    08 17 14.7 +02 00 41   0.1738  0.9029    45.7   126.4    28.1
A. U. Tomatic                (C) Copyright 2024 MPC           M.P.E.C. 2024-J313
    
    
More information about the Iaude
mailing list